#timestamp,LO_Frequency,Hit,StdDev 
1566547215.1,286047001.0,N
1566547216.0,286047001.0,N
1566547235.8,286047000.5,N
1566547255.7,286046999.8,N
1566547275.5,286047002.2,N
1566547295.4,286047002.5,N
1566547315.2,286047002.0,N
1566547335.0,286046999.8,N
1566547335.9,286046999.8,N
1566547355.8,286047001.0,N
1566547375.6,286047000.0,N
1566547395.4,286047002.7,N
1566547415.3,286047002.2,N
1566547435.1,286047002.5,N
1566547455.9,286047002.8,N
1566547475.7,286047000.0,N
1566547495.5,286047002.6,N
1566547515.4,286047002.8,N
1566547535.2,286047002.3,N
1566547555.0,286047002.2,N
1566547555.9,286047002.2,N
1566547575.8,286047000.5,N
1566547595.6,286047000.1,N
1566547615.5,286047000.8,N
1566547635.3,286047000.5,N
1566547655.1,286047000.2,N
1566547675.9,286047000.3,N
1566547695.7,286047002.8,N
1566547715.5,286047002.0,N
1566547735.4,286047002.4,N
1566547755.2,286047002.0,N
1566547775.1,286047002.2,N
1566547776.0,286047002.2,N
1566547795.8,286047000.0,N
1566547815.6,286047000.2,N
1566547835.5,286047002.4,N
1566547855.3,286046999.8,N
1566547875.2,286046999.9,N
1566547895.9,286046999.7,N
1566547915.7,286047002.1,N
1566547935.6,286047001.9,N
1566547955.4,286047002.2,N
1566547975.2,286047001.8,N
1566547995.1,286047001.8,N
1566547996.0,286047001.8,N
1566548015.8,286046999.7,N
1566548035.7,286047000.0,N
1566548055.5,286047000.5,N
1566548075.3,286047000.1,N
1566548095.2,286047001.9,N
1566548115.0,286047000.2,N
1566548115.9,286047000.2,N
1566548135.8,286047000.5,N
1566548155.6,286047000.5,N
1566548175.4,286047000.2,N
1566548195.3,286046999.7,N
1566548215.1,286047002.8,N
1566548235.8,286047001.6,N
1566548255.7,286047001.8,N
1566548275.5,286047004.4,Y
1566548295.4,286047001.7,P
1566548315.2,286046999.7,N
1566548335.0,286047002.4,N
1566548335.9,286047002.4,N
1566548355.8,286046999.8,N
1566548375.6,286047002.4,N
1566548395.5,286047002.2,N
1566548415.3,286047001.3,N
1566548435.1,286047001.4,N
1566548455.9,286047001.5,N
1566548475.7,286047002.3,N
1566548495.5,286047002.8,Y
1566548515.4,286047001.0,P
1566548535.2,286047000.5,N
1566548555.1,286046999.7,N
1566548556.0,286046999.7,N
1566548575.8,286047002.5,Y
1566548595.6,286047000.6,P
1566548615.5,286046998.2,P
1566548635.3,286046998.6,N
1566548655.2,286046998.3,N
1566548675.9,286046999.6,N
1566548695.7,286046999.6,N
1566548715.6,286046999.3,N
1566548735.4,286046998.7,N
1566548755.3,286046999.0,N
1566548775.1,286046999.3,N
1566548776.0,286046999.3,N
1566548795.8,286046998.9,N
1566548815.7,286046998.9,N
1566548835.5,286046998.2,N
1566548855.3,286046998.5,N
1566548875.2,286046999.9,N
1566548895.0,286047000.8,N
1566548895.9,286047000.8,N
1566548915.8,286046998.6,N
1566548935.6,286047000.6,N
1566548955.4,286047000.0,N
1566548975.3,286047000.9,N
1566548995.1,286047000.6,N
1566549015.9,286046998.1,N
1566549035.7,286047000.0,N
1566549055.5,286046998.2,N
1566549075.4,286047001.1,N
1566549095.2,286047000.7,N
1566549115.1,286046998.5,N
1566549116.0,286046998.5,N
1566549135.8,286046998.7,N
1566549155.6,286047000.7,N
1566549175.5,286047000.8,N
1566549195.3,286046998.2,N
1566549215.2,286046998.1,N
1566549235.9,286046998.3,N
1566549255.7,286047000.3,N
1566549275.6,286046999.9,N
1566549295.4,286047000.4,N
1566549315.2,286047001.1,N
1566549335.1,286046999.9,N
1566549336.0,286046999.9,N
1566549355.8,286047000.6,N
1566549375.7,286047000.1,N
1566549395.5,286046998.2,N
1566549415.3,286046999.1,N
1566549435.2,286047001.1,N
1566549455.0,286046998.6,N
1566549455.9,286046998.6,N
1566549475.8,286046999.4,N
1566549495.6,286046998.1,N
1566549515.4,286046998.6,N
1566549535.3,286047001.1,N
1566549555.1,286046998.4,N
1566549575.8,286047000.8,N
1566549595.7,286047000.6,N
1566549615.5,286047000.9,N
1566549635.4,286047000.1,N
1566549655.2,286046999.9,N
1566549675.0,286047001.1,N
1566549675.9,286047001.1,N
1566549695.8,286047001.0,N
1566549715.6,286047001.1,N
1566549735.5,286046998.1,N
1566549755.3,286046998.7,N
1566549775.1,286046999.0,N
1566549795.9,286047000.8,N
1566549815.7,286046998.6,N
1566549835.5,286047000.8,N
1566549855.4,286046999.0,N
1566549875.2,286046998.2,N
1566549895.1,286047001.2,N
1566549896.0,286047001.2,N
1566549915.8,286046998.2,N
1566549935.6,286047001.1,N
1566549955.5,286047000.8,N
1566549975.3,286046998.6,N
1566549995.2,286047001.1,N
1566550015.0,286047001.2,N
1566550015.9,286047001.2,N
1566550035.8,286046998.9,N
1566550055.6,286046996.5,Y
1566550075.4,286046995.2,P
1566550095.3,286046995.6,N
1566550115.1,286046995.8,N
1566550135.8,286046995.7,N
1566550155.7,286046996.1,N
1566550175.5,286046993.4,Y
1566550195.4,286046996.6,P
1566550215.2,286046996.8,P
1566550235.0,286046996.7,P
1566550235.9,286046996.7,Y
1566550255.8,286047002.4,P
1566550275.6,286047002.7,N
1566550295.5,286047002.1,N
1566550315.3,286047001.7,N
1566550335.1,286047001.8,N
1566550355.9,286047004.1,N
1566550375.7,286047004.3,N
1566550395.6,286047003.7,N
1566550415.4,286047003.6,N
1566550435.2,286047004.1,N
1566550455.1,286047002.2,N
1566550456.0,286047002.2,N
1566550475.8,286047004.3,N
1566550495.6,286047001.5,N
1566550515.5,286047003.2,N
1566550535.3,286047004.2,N
1566550555.2,286047003.9,N
1566550575.9,286047002.9,N
1566550595.7,286047004.2,N
1566550615.6,286047002.0,N
1566550635.4,286047001.7,N
1566550655.2,286047002.3,N
1566550675.1,286047000.1,N
1566550676.0,286047000.1,N
1566550695.8,286047001.4,N
1566550715.7,286047001.5,N
1566550735.5,286047001.4,N
1566550755.3,286047003.4,N
1566550775.2,286047001.9,N
1566550795.0,286047002.0,N
1566550795.9,286047002.0,N
